Time,TemperatureF,DewpointF,PressureIn,WindDirection,WindDirectionDegrees,WindSpeedMPH,WindSpeedGustMPH,Humidity,HourlyPrecipIn,Conditions,Clouds,dailyrainin,SoftwareType,DateUTC
2013-11-10 00:06:00,48.5,38.1,30.02,North,0,0.0,0.0,67,0.00,,,-99.99,Custom,2013-11-10 08:06:00,
2013-11-10 00:16:00,48.2,38.1,30.02,North,0,0.0,0.0,68,0.00,,,-99.99,Custom,2013-11-10 08:16:00,
2013-11-10 00:26:00,47.8,37.8,30.02,North,0,0.0,0.0,68,0.00,,,-99.99,Custom,2013-11-10 08:26:00,
2013-11-10 00:36:00,47.6,37.6,30.03,North,0,0.0,0.0,68,0.00,,,-99.99,Custom,2013-11-10 08:36:00,
2013-11-10 00:46:00,47.3,37.7,30.03,ENE,68,0.0,1.0,69,0.00,,,-99.99,Custom,2013-11-10 08:46:00,
2013-11-10 00:56:00,47.0,38.1,30.03,North,0,0.0,0.0,71,0.00,,,-99.99,Custom,2013-11-10 08:56:00,
2013-11-10 01:06:00,46.8,37.9,30.03,ENE,68,0.0,1.0,71,0.00,,,-99.99,Custom,2013-11-10 09:06:00,
2013-11-10 01:16:00,46.7,37.8,30.03,ENE,68,0.0,1.0,71,0.00,,,-99.99,Custom,2013-11-10 09:16:00,
2013-11-10 01:26:00,46.5,37.6,30.03,ENE,68,0.0,1.0,71,0.00,,,-99.99,Custom,2013-11-10 09:26:00,
2013-11-10 01:36:00,46.3,37.4,30.03,North,0,0.0,0.0,71,0.00,,,-99.99,Custom,2013-11-10 09:36:00,
2013-11-10 01:46:00,46.2,37.3,30.03,ENE,68,0.0,1.0,71,0.00,,,-99.99,Custom,2013-11-10 09:46:00,
2013-11-10 01:56:00,46.1,37.2,30.03,ENE,68,0.0,1.0,71,0.00,,,-99.99,Custom,2013-11-10 09:56:00,
2013-11-10 02:06:00,46.2,37.3,30.02,ENE,68,0.0,1.0,71,0.00,,,-99.99,Custom,2013-11-10 10:06:00,
2013-11-10 02:16:00,46.2,37.3,30.02,ENE,68,0.0,2.0,71,0.00,,,-99.99,Custom,2013-11-10 10:16:00,
2013-11-10 02:26:00,46.2,37.3,30.02,ENE,68,1.0,2.0,71,0.00,,,-99.99,Custom,2013-11-10 10:26:00,
2013-11-10 02:36:00,46.1,37.2,30.02,North,0,0.0,0.0,71,0.00,,,-99.99,Custom,2013-11-10 10:36:00,
2013-11-10 02:41:00,45.6,37.5,30.02,North,0,0.0,0.0,73,0.00,,,-99.99,Custom,2013-11-10 10:41:00,
2013-11-10 02:46:00,45.8,37.3,30.02,North,0,0.0,0.0,72,0.00,,,-99.99,Custom,2013-11-10 10:46:00,
2013-11-10 02:56:00,45.6,37.5,30.02,North,0,0.0,0.0,73,0.00,,,-99.99,Custom,2013-11-10 10:56:00,
2013-11-10 03:06:00,45.5,37.4,30.02,ENE,68,0.0,1.0,73,0.00,,,-99.99,Custom,2013-11-10 11:06:00,
2013-11-10 03:16:00,45.4,37.3,30.02,North,0,0.0,0.0,73,0.00,,,-99.99,Custom,2013-11-10 11:16:00,
2013-11-10 03:26:00,45.2,37.1,30.02,North,0,0.0,0.0,73,0.00,,,-99.99,Custom,2013-11-10 11:26:00,
2013-11-10 03:36:00,45.1,37.0,30.02,North,0,0.0,0.0,73,0.00,,,-99.99,Custom,2013-11-10 11:36:00,
2013-11-10 03:46:00,44.7,36.9,30.02,North,0,0.0,0.0,74,0.00,,,-99.99,Custom,2013-11-10 11:46:00,
2013-11-10 03:56:00,44.6,36.8,30.02,North,0,0.0,0.0,74,0.00,,,-99.99,Custom,2013-11-10 11:56:00,
2013-11-10 04:06:00,44.4,36.6,30.03,North,0,0.0,0.0,74,0.00,,,-99.99,Custom,2013-11-10 12:06:00,
2013-11-10 04:16:00,44.1,36.4,30.02,North,0,0.0,0.0,74,0.00,,,-99.99,Custom,2013-11-10 12:16:00,
2013-11-10 04:26:00,43.9,36.2,30.03,North,0,0.0,0.0,74,0.00,,,-99.99,Custom,2013-11-10 12:26:00,
2013-11-10 04:36:00,43.7,36.3,30.04,North,0,0.0,0.0,75,0.00,,,-99.99,Custom,2013-11-10 12:36:00,
2013-11-10 04:46:00,43.6,36.2,30.04,North,0,0.0,0.0,75,0.00,,,-99.99,Custom,2013-11-10 12:46:00,
2013-11-10 04:56:00,43.6,36.2,30.04,North,0,0.0,0.0,75,0.00,,,-99.99,Custom,2013-11-10 12:56:00,
2013-11-10 05:06:00,43.4,36.0,30.04,ENE,68,0.0,1.0,75,0.00,,,-99.99,Custom,2013-11-10 13:06:00,
2013-11-10 05:16:00,43.2,35.8,30.04,North,0,0.0,0.0,75,0.00,,,-99.99,Custom,2013-11-10 13:16:00,
2013-11-10 05:26:00,43.0,35.6,30.04,North,0,0.0,0.0,75,0.00,,,-99.99,Custom,2013-11-10 13:26:00,
2013-11-10 05:36:00,42.7,35.7,30.05,North,0,0.0,0.0,76,0.00,,,-99.99,Custom,2013-11-10 13:36:00,
2013-11-10 05:46:00,42.6,35.6,30.05,North,0,0.0,0.0,76,0.00,,,-99.99,Custom,2013-11-10 13:46:00,
2013-11-10 05:56:00,42.4,35.7,30.05,North,0,0.0,0.0,77,0.00,,,-99.99,Custom,2013-11-10 13:56:00,
2013-11-10 06:06:00,42.3,35.6,30.06,North,0,0.0,0.0,77,0.00,,,-99.99,Custom,2013-11-10 14:06:00,
2013-11-10 06:11:00,42.3,35.6,30.06,North,0,0.0,0.0,77,0.00,,,-99.99,Custom,2013-11-10 14:11:00,
2013-11-10 06:21:00,42.2,35.5,30.06,North,0,0.0,0.0,77,0.00,,,-99.99,Custom,2013-11-10 14:21:00,
2013-11-10 06:26:00,42.1,35.4,30.07,North,0,0.0,0.0,77,0.00,,,-99.99,Custom,2013-11-10 14:26:00,
2013-11-10 06:36:00,42.2,35.8,30.06,North,0,0.0,0.0,78,0.00,,,-99.99,Custom,2013-11-10 14:36:00,
2013-11-10 06:46:00,42.5,35.8,30.07,North,0,0.0,0.0,77,0.00,,,-99.99,Custom,2013-11-10 14:46:00,
2013-11-10 06:56:00,42.8,36.4,30.07,ENE,68,0.0,1.0,78,0.00,,,-99.99,Custom,2013-11-10 14:56:00,
2013-11-10 07:06:00,43.2,36.8,30.07,ENE,68,1.0,2.0,78,0.00,,,-99.99,Custom,2013-11-10 15:06:00,
2013-11-10 07:16:00,43.6,37.5,30.07,ENE,68,0.0,2.0,79,0.00,,,-99.99,Custom,2013-11-10 15:16:00,
2013-11-10 07:26:00,44.0,37.9,30.08,ENE,68,0.0,2.0,79,0.00,,,-99.99,Custom,2013-11-10 15:26:00,
2013-11-10 07:36:00,44.3,37.9,30.08,ENE,68,0.0,1.0,78,0.00,,,-99.99,Custom,2013-11-10 15:36:00,
2013-11-10 07:46:00,44.6,38.5,30.09,ENE,68,1.0,2.0,79,0.00,,,-99.99,Custom,2013-11-10 15:46:00,
2013-11-10 07:56:00,45.0,38.9,30.09,ENE,68,1.0,3.0,79,0.00,,,-99.99,Custom,2013-11-10 15:56:00,
2013-11-10 08:06:00,45.4,39.3,30.09,ENE,68,0.0,2.0,79,0.00,,,-99.99,Custom,2013-11-10 16:06:00,
2013-11-10 08:16:00,45.7,39.6,30.09,ENE,68,1.0,2.0,79,0.00,,,-99.99,Custom,2013-11-10 16:16:00,
2013-11-10 08:26:00,46.2,40.1,30.10,ENE,68,1.0,3.0,79,0.00,,,-99.99,Custom,2013-11-10 16:26:00,
2013-11-10 08:36:00,46.6,40.4,30.10,North,0,0.0,0.0,79,0.00,,,-99.99,Custom,2013-11-10 16:36:00,
2013-11-10 08:46:00,47.3,41.5,30.10,ENE,68,0.0,2.0,80,0.00,,,-99.99,Custom,2013-11-10 16:46:00,
2013-11-10 08:56:00,48.0,42.1,30.10,ENE,68,0.0,1.0,80,0.00,,,-99.99,Custom,2013-11-10 16:56:00,
2013-11-10 09:06:00,48.6,42.4,30.10,ENE,68,0.0,1.0,79,0.00,,,-99.99,Custom,2013-11-10 17:06:00,
2013-11-10 09:16:00,49.4,43.5,30.10,ENE,68,0.0,1.0,80,0.00,,,-99.99,Custom,2013-11-10 17:16:00,
2013-11-10 09:26:00,50.1,43.9,30.11,ENE,68,0.0,1.0,79,0.00,,,-99.99,Custom,2013-11-10 17:26:00,
2013-11-10 09:36:00,50.5,44.2,30.11,North,0,0.0,1.0,79,0.00,,,-99.99,Custom,2013-11-10 17:36:00,
2013-11-10 09:46:00,50.9,44.6,30.11,ENE,68,0.0,1.0,79,0.00,,,-99.99,Custom,2013-11-10 17:46:00,
2013-11-10 09:56:00,51.1,44.8,30.11,ENE,68,0.0,2.0,79,0.00,,,-99.99,Custom,2013-11-10 17:56:00,
2013-11-10 10:06:00,51.6,45.0,30.11,North,0,1.0,3.0,78,0.00,,,-99.99,Custom,2013-11-10 18:06:00,
2013-11-10 10:16:00,52.2,44.9,30.11,North,0,1.0,3.0,76,0.00,,,-99.99,Custom,2013-11-10 18:16:00,
2013-11-10 10:26:00,53.2,44.8,30.10,SE,135,1.0,3.0,73,0.00,,,-99.99,Custom,2013-11-10 18:26:00,
2013-11-10 10:36:00,54.2,45.7,30.10,East,90,0.0,2.0,73,0.00,,,-99.99,Custom,2013-11-10 18:36:00,
2013-11-10 10:46:00,56.3,45.1,30.10,NNW,338,1.0,4.0,66,0.00,,,-99.99,Custom,2013-11-10 18:46:00,
2013-11-10 10:56:00,57.6,46.3,30.10,NNW,338,2.0,3.0,66,0.00,,,-99.99,Custom,2013-11-10 18:56:00,
2013-11-10 11:06:00,61.1,46.7,30.10,NNW,338,0.0,2.0,59,0.00,,,-99.99,Custom,2013-11-10 19:06:00,
2013-11-10 11:16:00,66.7,48.5,30.10,North,0,2.0,4.0,52,0.00,,,-99.99,Custom,2013-11-10 19:16:00,
2013-11-10 11:26:00,65.6,48.5,30.09,NNW,338,1.0,4.0,54,0.00,,,-99.99,Custom,2013-11-10 19:26:00,
2013-11-10 11:36:00,63.6,48.6,30.10,North,0,1.0,5.0,58,0.00,,,-99.99,Custom,2013-11-10 19:36:00,
2013-11-10 11:46:00,65.0,48.5,30.09,North,0,1.0,4.0,55,0.00,,,-99.99,Custom,2013-11-10 19:46:00,
2013-11-10 11:56:00,65.4,48.3,30.09,North,0,1.0,3.0,54,0.00,,,-99.99,Custom,2013-11-10 19:56:00,
2013-11-10 12:06:00,64.5,48.5,30.08,North,0,1.0,2.0,56,0.00,,,-99.99,Custom,2013-11-10 20:06:00,
2013-11-10 12:16:00,65.0,48.0,30.08,North,0,1.0,2.0,54,0.00,,,-99.99,Custom,2013-11-10 20:16:00,
2013-11-10 12:26:00,64.9,48.4,30.08,NNE,23,1.0,3.0,55,0.00,,,-99.99,Custom,2013-11-10 20:26:00,
2013-11-10 12:36:00,65.0,48.0,30.07,North,0,1.0,2.0,54,0.00,,,-99.99,Custom,2013-11-10 20:36:00,
2013-11-10 12:41:00,65.0,48.0,30.07,North,0,1.0,2.0,54,0.00,,,-99.99,Custom,2013-11-10 20:41:00,
2013-11-10 12:47:00,65.5,47.9,30.06,North,0,1.0,3.0,53,0.00,,,-99.99,Custom,2013-11-10 20:47:00,
2013-11-10 12:56:00,66.2,48.1,30.06,North,0,1.0,2.0,52,0.00,,,-99.99,Custom,2013-11-10 20:56:00,
2013-11-10 13:06:00,66.3,48.2,30.06,North,0,1.0,3.0,52,0.00,,,-99.99,Custom,2013-11-10 21:06:00,
2013-11-10 13:16:00,66.6,48.4,30.06,North,0,1.0,3.0,52,0.00,,,-99.99,Custom,2013-11-10 21:16:00,
2013-11-10 13:26:00,66.9,48.7,30.05,North,0,1.0,3.0,52,0.00,,,-99.99,Custom,2013-11-10 21:26:00,
2013-11-10 13:36:00,67.0,48.8,30.05,North,0,1.0,2.0,52,0.00,,,-99.99,Custom,2013-11-10 21:36:00,
2013-11-10 13:46:00,66.8,48.1,30.04,North,0,1.0,3.0,51,0.00,,,-99.99,Custom,2013-11-10 21:46:00,
2013-11-10 13:56:00,66.2,48.1,30.04,North,0,1.0,4.0,52,0.00,,,-99.99,Custom,2013-11-10 21:56:00,
2013-11-10 14:06:00,65.7,48.1,30.03,North,0,1.0,2.0,53,0.00,,,-99.99,Custom,2013-11-10 22:06:00,
2013-11-10 14:16:00,65.4,47.8,30.03,North,0,1.0,3.0,53,0.00,,,-99.99,Custom,2013-11-10 22:16:00,
2013-11-10 14:26:00,65.1,47.6,30.03,North,0,2.0,5.0,53,0.00,,,-99.99,Custom,2013-11-10 22:26:00,
2013-11-10 14:36:00,64.9,47.9,30.03,North,0,1.0,2.0,54,0.00,,,-99.99,Custom,2013-11-10 22:36:00,
2013-11-10 14:46:00,64.9,47.9,30.03,North,0,1.0,3.0,54,0.00,,,-99.99,Custom,2013-11-10 22:46:00,
2013-11-10 14:56:00,65.0,48.0,30.03,North,0,1.0,5.0,54,0.00,,,-99.99,Custom,2013-11-10 22:56:00,
2013-11-10 15:06:00,65.0,48.5,30.04,North,0,1.0,2.0,55,0.00,,,-99.99,Custom,2013-11-10 23:06:00,
2013-11-10 15:16:00,65.0,48.5,30.04,North,0,1.0,3.0,55,0.00,,,-99.99,Custom,2013-11-10 23:16:00,
2013-11-10 15:26:00,64.9,48.8,30.04,North,0,0.0,2.0,56,0.00,,,-99.99,Custom,2013-11-10 23:26:00,
2013-11-10 15:36:00,64.9,48.4,30.04,North,0,1.0,2.0,55,0.00,,,-99.99,Custom,2013-11-10 23:36:00,
2013-11-10 15:46:00,64.9,48.8,30.05,NW,315,1.0,5.0,56,0.00,,,-99.99,Custom,2013-11-10 23:46:00,
2013-11-10 15:56:00,64.8,48.3,30.05,North,0,1.0,3.0,55,0.00,,,-99.99,Custom,2013-11-10 23:56:00,
2013-11-10 16:06:00,64.6,48.1,30.06,North,0,1.0,2.0,55,0.00,,,-99.99,Custom,2013-11-11 00:06:00,
2013-11-10 16:16:00,64.4,47.9,30.06,North,0,1.0,2.0,55,0.00,,,-99.99,Custom,2013-11-11 00:16:00,
2013-11-10 16:26:00,64.0,48.0,30.06,North,0,1.0,2.0,56,0.00,,,-99.99,Custom,2013-11-11 00:26:00,
2013-11-10 16:31:00,64.0,48.0,30.06,North,0,1.0,2.0,56,0.00,,,-99.99,Custom,2013-11-11 00:31:00,
2013-11-10 16:41:00,63.6,48.1,30.06,North,0,0.0,1.0,57,0.00,,,-99.99,Custom,2013-11-11 00:41:00,
2013-11-10 16:46:00,63.3,47.8,30.05,North,0,0.0,1.0,57,0.00,,,-99.99,Custom,2013-11-11 00:46:00,
2013-11-10 16:56:00,62.9,47.5,30.06,North,0,0.0,0.0,57,0.00,,,-99.99,Custom,2013-11-11 00:56:00,
2013-11-10 17:01:00,62.9,47.5,30.06,North,0,0.0,0.0,57,0.00,,,-99.99,Custom,2013-11-11 01:01:00,
2013-11-10 17:11:00,62.5,47.5,30.06,North,0,0.0,0.0,58,0.00,,,-99.99,Custom,2013-11-11 01:11:00,
2013-11-10 17:16:00,62.1,47.2,30.06,North,0,0.0,0.0,58,0.00,,,-99.99,Custom,2013-11-11 01:16:00,
2013-11-10 17:26:00,61.6,47.6,30.06,North,0,0.0,0.0,60,0.00,,,-99.99,Custom,2013-11-11 01:26:00,
2013-11-10 17:36:00,60.9,47.8,30.06,North,0,0.0,0.0,62,0.00,,,-99.99,Custom,2013-11-11 01:36:00,
2013-11-10 17:46:00,60.2,47.1,30.06,North,0,0.0,0.0,62,0.00,,,-99.99,Custom,2013-11-11 01:46:00,
2013-11-10 17:56:00,59.5,46.9,30.06,North,0,0.0,0.0,63,0.00,,,-99.99,Custom,2013-11-11 01:56:00,
2013-11-10 18:06:00,58.9,46.8,30.06,North,0,0.0,0.0,64,0.00,,,-99.99,Custom,2013-11-11 02:06:00,
2013-11-10 18:16:00,58.4,46.3,30.07,North,0,0.0,0.0,64,0.00,,,-99.99,Custom,2013-11-11 02:16:00,
2013-11-10 18:26:00,57.8,46.1,30.07,North,0,0.0,0.0,65,0.00,,,-99.99,Custom,2013-11-11 02:26:00,
2013-11-10 18:36:00,57.3,46.1,30.07,North,0,0.0,0.0,66,0.00,,,-99.99,Custom,2013-11-11 02:36:00,
2013-11-10 18:46:00,56.8,45.6,30.07,North,0,0.0,0.0,66,0.00,,,-99.99,Custom,2013-11-11 02:46:00,
2013-11-10 18:56:00,56.3,45.5,30.08,North,0,0.0,0.0,67,0.00,,,-99.99,Custom,2013-11-11 02:56:00,
2013-11-10 19:06:00,55.9,45.1,30.08,North,0,0.0,0.0,67,0.00,,,-99.99,Custom,2013-11-11 03:06:00,
2013-11-10 19:16:00,55.4,45.0,30.08,North,0,0.0,0.0,68,0.00,,,-99.99,Custom,2013-11-11 03:16:00,
2013-11-10 19:26:00,55.0,45.4,30.08,North,0,0.0,0.0,70,0.00,,,-99.99,Custom,2013-11-11 03:26:00,
2013-11-10 19:36:00,54.5,45.3,30.08,North,0,0.0,0.0,71,0.00,,,-99.99,Custom,2013-11-11 03:36:00,
2013-11-10 19:46:00,54.2,45.0,30.08,North,0,0.0,0.0,71,0.00,,,-99.99,Custom,2013-11-11 03:46:00,
2013-11-10 19:56:00,53.8,45.0,30.08,North,0,0.0,0.0,72,0.00,,,-99.99,Custom,2013-11-11 03:56:00,
2013-11-10 20:06:00,53.5,45.1,30.09,North,0,0.0,0.0,73,0.00,,,-99.99,Custom,2013-11-11 04:06:00,
2013-11-10 20:16:00,53.2,44.8,30.09,North,0,0.0,0.0,73,0.00,,,-99.99,Custom,2013-11-11 04:16:00,
2013-11-10 20:21:00,53.2,44.8,30.09,North,0,0.0,0.0,73,0.00,,,-99.99,Custom,2013-11-11 04:21:00,
2013-11-10 20:31:00,52.8,44.4,30.09,North,0,0.0,0.0,73,0.00,,,-99.99,Custom,2013-11-11 04:31:00,
2013-11-10 20:36:00,52.5,44.5,30.08,North,0,0.0,0.0,74,0.00,,,-99.99,Custom,2013-11-11 04:36:00,
2013-11-10 20:46:00,52.2,44.2,30.09,North,0,0.0,0.0,74,0.00,,,-99.99,Custom,2013-11-11 04:46:00,
2013-11-10 20:56:00,51.8,44.5,30.09,North,0,0.0,0.0,76,0.00,,,-99.99,Custom,2013-11-11 04:56:00,
2013-11-10 21:01:00,51.8,44.5,30.09,North,0,0.0,0.0,76,0.00,,,-99.99,Custom,2013-11-11 05:01:00,
2013-11-10 21:06:00,51.5,44.2,30.09,North,0,0.0,0.0,76,0.00,,,-99.99,Custom,2013-11-11 05:06:00,
2013-11-10 21:11:00,51.5,44.2,30.09,North,0,0.0,0.0,76,0.00,,,-99.99,Custom,2013-11-11 05:11:00,
2013-11-10 21:16:00,51.2,43.9,30.09,North,0,0.0,0.0,76,0.00,,,-99.99,Custom,2013-11-11 05:16:00,
2013-11-10 21:21:00,50.8,43.5,30.10,North,0,0.0,0.0,76,0.00,,,-99.99,Custom,2013-11-11 05:21:00,
2013-11-10 21:26:00,50.8,43.5,30.10,North,0,0.0,0.0,76,0.00,,,-99.99,Custom,2013-11-11 05:26:00,
2013-11-10 21:36:00,50.6,43.3,30.10,North,0,0.0,0.0,76,0.00,,,-99.99,Custom,2013-11-11 05:36:00,
2013-11-10 21:46:00,50.4,43.1,30.10,North,0,0.0,0.0,76,0.00,,,-99.99,Custom,2013-11-11 05:46:00,
2013-11-10 21:56:00,50.1,42.8,30.10,North,0,0.0,0.0,76,0.00,,,-99.99,Custom,2013-11-11 05:56:00,
2013-11-10 22:06:00,49.8,42.6,30.10,North,0,0.0,0.0,76,0.00,,,-99.99,Custom,2013-11-11 06:06:00,
2013-11-10 22:16:00,49.8,42.6,30.10,North,0,0.0,0.0,76,0.00,,,-99.99,Custom,2013-11-11 06:16:00,
2013-11-10 22:21:00,49.3,42.1,30.10,North,0,0.0,0.0,76,0.00,,,-99.99,Custom,2013-11-11 06:21:00,
2013-11-10 22:31:00,49.0,41.4,30.10,North,0,0.0,0.0,75,0.00,,,-99.99,Custom,2013-11-11 06:31:00,
2013-11-10 22:41:00,48.9,41.7,30.10,North,0,0.0,0.0,76,0.00,,,-99.99,Custom,2013-11-11 06:41:00,
2013-11-10 22:51:00,48.6,41.4,30.10,North,0,0.0,0.0,76,0.00,,,-99.99,Custom,2013-11-11 06:51:00,
2013-11-10 23:01:00,48.3,41.1,30.10,North,0,0.0,0.0,76,0.00,,,-99.99,Custom,2013-11-11 07:01:00,
2013-11-10 23:11:00,48.3,41.1,30.10,North,0,0.0,0.0,76,0.00,,,-99.99,Custom,2013-11-11 07:11:00,
2013-11-10 23:21:00,48.3,41.1,30.10,North,0,0.0,0.0,76,0.00,,,-99.99,Custom,2013-11-11 07:21:00,
2013-11-10 23:31:00,48.3,41.1,30.10,North,0,0.0,0.0,76,0.00,,,-99.99,Custom,2013-11-11 07:31:00,
2013-11-10 23:35:00,48.3,41.1,30.10,North,0,0.0,0.0,76,0.00,,,-99.99,Custom,2013-11-11 07:35:00,
2013-11-10 23:36:00,48.3,41.1,30.10,North,0,0.0,0.0,76,0.00,,,-99.99,Custom,2013-11-11 07:36:00,
2013-11-10 23:45:00,48.1,41.2,30.10,North,0,0.0,0.0,77,0.00,,,-99.99,Custom,2013-11-11 07:45:00,
2013-11-10 23:46:00,48.1,41.2,30.10,North,0,0.0,0.0,77,0.00,,,-99.99,Custom,2013-11-11 07:46:00,
2013-11-10 23:51:00,48.1,41.2,30.10,North,0,0.0,0.0,77,0.00,,,-99.99,Custom,2013-11-11 07:51:00,